Temperature
14 15 16 16 15 13 11 12 12 12 12 14 13 12 13 14 14 13 12 12 12 12 12 12 12 12 12 12 12 12 13 13 13 13 13 13 13 12 12 12 13 13 12 11
15 16 15 15 16 15 13 13 12 12 13 13 13 13 13 13 13 13 12 12 11 11 11 11 11 11 11 11 12 12 12 12 12 12 12 12 12 12 12 12 12 12 12 11
13 14 16 15 15 15 14 13 13 13 14 13 12 11 13 15 15 14 13 12 12 11 11 11 11 11 11 11 11 12 12 12 12 12 12 12 12 12 12 12 12 12 12 11
12 14 14 14 15 15 15 14 13 13 13 12 13 15 15 15 15 15 14 13 12 11 11 11 11 11 11 11 11 12 11 11 12 12 12 12 12 11 11 11 12 12 11 11
10 12 13 14 16 16 15 14 15 14 14 14 14 13 15 17 16 16 15 13 12 11 11 11 10 10 11 11 11 11 11 11 11 11 11 11 11 11 11 11 11 11 11 11
11 12 12 14 17 17 16 14 15 14 13 14 12 12 14 18 17 16 15 13 12 11 11 10 10 10 10 11 11 11 11 11 11 11 11 11 11 11 11 11 11 11 11 11
11 11 12 14 16 16 15 15 17 17 16 15 12 16 17 17 16 16 14 13 12 11 11 10 10 10 10 10 10 11 11 10 10 10 10 10 10 10 10 10 10 10 10 10
11 11 12 15 16 14 15 18 18 18 19 18 18 19 18 17 16 15 14 13 12 11 11 10 10 10 10 10 10 10 10 10 10 10 10 10 10 10 10 10 10 10 10 10
11 12 14 17 17 17 17 17 18 18 18 18 18 19 18 17 16 15 14 13 12 11 11 10 10 10 10 10 10 10 10 9 9 9 9 10 10 10 10 10 10 9 9 9
10 11 13 16 17 17 17 17 17 18 18 17 17 18 18 17 16 16 14 13 12 11 11 11 11 11 10 10 10 10 9 9 9 9 9 9 10 10 9 9 9 9 9 9
10 12 13 15 16 17 17 17 17 17 18 18 18 18 18 17 17 16 15 13 12 12 11 11 11 11 10 10 9 9 9 8 8 8 9 9 9 9 9 9 9 9 9 9
12 14 13 14 15 16 16 16 17 17 18 18 18 18 18 17 17 16 15 14 13 12 11 11 11 11 10 10 9 9 9 8 8 8 8 9 9 9 9 9 9 9 9 8
13 14 13 14 15 15 15 15 16 16 17 17 18 18 18 18 17 16 15 14 13 13 12 11 11 11 10 10 9 9 9 9 8 8 8 8 9 9 9 9 9 9 9 9
12 12 12 13 13 13 14 14 14 15 16 17 18 18 18 18 17 17 16 15 14 13 13 12 11 11 10 10 9 9 9 9 9 8 8 8 8 8 9 9 9 9 9 9
11 11 11 11 12 12 13 13 13 13 14 16 17 17 17 17 17 17 16 15 14 14 13 12 11 11 10 10 9 9 9 9 9 8 8 8 8 8 8 9 9 9 9 9
10 11 11 11 11 11 11 11 11 11 11 13 15 16 16 16 17 17 17 16 15 14 14 13 12 11 10 10 10 9 9 9 9 8 8 8 8 9 9 9 9 9 9 9
9 10 10 10 10 10 10 10 10 10 10 10 12 13 14 15 15 16 16 16 15 15 14 14 12 11 11 10 10 9 9 9 9 8 9 9 9 9 9 9 9 9 10 10
9 10 10 10 10 10 10 9 9 9 9 9 9 11 12 13 14 15 16 16 15 15 14 14 13 12 11 11 10 10 9 9 9 9 9 9 9 10 10 10 10 10 10 10
9 9 9 9 9 10 10 10 9 9 9 8 9 9 10 11 12 14 15 15 15 15 15 14 14 12 11 11 11 10 10 9 9 9 9 10 10 10 10 10 10 10 10 10
9 9 9 8 9 9 9 9 9 10 9 9 9 9 9 9 10 11 12 12 14 15 15 15 14 13 12 11 11 11 10 10 10 10 10 10 10 10 10 10 10 10 10 10
7 7 7 7 7 7 8 8 8 9 9 9 9 9 9 9 9 10 10 11 12 13 13 13 14 14 13 12 11 11 11 11 10 10 10 10 10 10 10 10 10 10 10 10
6 5 6 6 6 6 6 7 7 8 8 9 9 9 9 9 9 9 10 11 12 12 12 12 12 13 13 13 12 11 11 11 11 11 11 10 10 10 10 10 10 10 10 10
5 5 4 4 4 4 5 6 6 7 7 8 8 8 9 9 9 9 9 11 11 12 11 11 12 12 13 13 12 12 12 11 11 11 11 11 11 11 11 11 11 11 11 11
4 4 4 3 3 3 4 5 5 6 6 7 7 8 8 9 9 10 10 10 11 11 11 11 11 11 12 12 11 11 11 11 11 11 11 11 11 11 11 11 11 11 11 11
4 4 4 4 3 3 3 4 5 5 5 5 6 7 8 8 9 9 10 10 11 11 11 11 11 11 11 11 11 10 11 11 12 12 12 12 12 12 12 11 11 11 11 11
5 4 4 4 3 3 3 3 4 4 4 4 5 6 7 8 9 9 10 10 11 11 11 11 11 11 11 10 10 10 10 11 11 12 12 12 12 12 12 12 12 11 11 11
5 4 4 3 3 3 3 3 3 4 4 4 4 5 6 7 8 9 9 10 10 10 10 10 11 11 11 11 10 10 10 11 11 11 12 12 12 12 12 12 12 12 11 11
Wind_Speed
8 8 5 8 9 8 10 10 11 12 12 16 13 9 8 7 6 7 7 5 4 3 2 2 2 1 2 3 2 1 1 2 3 4 4 5 6 7 7 7 7 6 6 6
6 8 8 8 11 10 11 8 10 11 14 15 10 6 7 8 8 8 7 5 5 5 4 3 3 3 3 2 1 1 2 1 1 3 4 5 6 6 7 7 7 7 7 6
7 6 4 8 11 10 8 9 10 13 16 10 6 10 9 8 8 9 8 7 8 7 6 6 6 5 3 1 1 3 3 3 3 3 5 5 7 7 6 6 6 7 6 6
3 1 7 10 5 7 8 11 11 11 10 9 11 7 7 8 9 10 9 8 8 7 6 5 4 4 3 2 2 4 3 4 4 5 6 7 8 7 5 4 5 5 6 6
4 5 9 9 8 8 9 11 12 13 15 9 3 3 8 10 11 12 9 8 7 7 6 4 4 4 3 3 3 5 4 4 4 5 6 7 7 6 5 4 5 6 6 6
3 4 8 11 8 3 4 8 12 10 13 9 6 2 10 8 7 9 8 7 8 7 5 5 5 4 4 4 4 5 5 4 4 5 6 6 6 5 4 5 6 8 8 8
6 8 9 9 5 5 4 9 7 7 12 10 11 13 8 1 3 6 8 8 8 8 6 6 5 5 6 5 5 5 5 5 5 5 6 6 4 4 7 8 8 9 9 8
3 4 8 5 3 5 10 7 6 7 11 12 15 13 10 6 5 7 8 8 8 8 7 5 5 7 7 6 5 5 6 6 5 5 5 5 5 5 7 9 10 9 8 8
8 10 10 8 10 12 9 9 11 11 14 14 14 13 11 9 9 10 11 10 9 9 8 5 6 7 8 6 6 7 7 6 5 5 4 5 6 7 7 8 8 7 7 6
7 11 13 14 14 13 13 13 14 14 14 12 14 15 12 9 8 10 11 10 9 8 8 8 7 7 7 6 7 7 7 6 5 5 4 4 4 6 7 8 8 7 7 6
10 13 12 12 13 14 14 12 12 13 12 12 14 15 13 10 11 12 12 10 10 10 11 11 10 9 9 9 10 9 9 7 6 5 5 4 4 3 5 6 8 9 7 7
10 14 12 15 17 17 15 16 16 14 13 12 14 17 14 12 12 12 13 11 10 12 12 11 10 11 11 12 12 11 9 8 7 6 5 5 6 5 7 5 10 11 11 9
11 17 16 17 17 18 17 17 17 15 14 15 14 15 15 13 12 13 12 13 15 15 13 12 11 12 12 13 12 12 10 10 8 8 7 6 6 7 7 5 7 9 12 11
11 11 10 12 16 18 17 16 16 15 15 15 15 13 13 13 11 14 16 17 15 13 12 12 12 13 13 13 13 11 10 11 10 8 8 7 7 6 7 7 6 3 4 7
14 13 10 14 15 17 17 15 15 16 15 14 12 11 13 15 16 18 17 14 12 12 13 13 14 13 12 14 13 12 10 8 8 8 8 7 7 7 6 6 6 4 3 3
19 17 15 15 16 16 17 18 18 19 17 14 10 10 13 16 16 15 14 14 14 16 16 15 15 14 14 15 14 11 9 12 11 9 8 7 7 7 7 7 6 6 6 6
20 19 18 18 16 14 12 13 15 18 19 18 15 11 11 13 13 12 14 17 18 18 16 16 16 14 15 16 15 11 10 11 14 10 8 8 8 8 8 8 8 8 8 8
16 15 15 15 14 13 13 12 12 14 16 18 19 14 9 12 15 15 14 14 13 12 13 15 15 14 15 16 14 11 11 11 11 10 9 8 8 8 8 9 10 10 9 7
17 17 18 17 14 12 10 9 9 9 11 14 16 16 13 8 10 10 9 11 15 17 16 16 19 18 16 17 16 12 12 13 12 10 10 10 9 7 8 8 9 10 9 8
17 18 18 18 16 13 12 10 9 8 9 10 11 12 13 13 11 8 7 11 15 16 15 17 19 18 18 18 19 13 14 15 14 13 11 10 10 9 8 9 9 9 9 9
18 19 20 19 18 16 14 13 12 11 10 9 8 8 9 12 13 10 6 10 13 13 11 18 17 16 17 17 19 15 16 15 15 14 13 12 11 11 10 10 10 10 10 10
13 15 18 20 19 18 16 14 15 15 13 11 11 10 8 9 11 12 10 10 11 12 12 13 15 18 20 20 17 17 16 16 15 14 13 13 12 12 12 11 11 11 11 11
13 14 17 19 18 18 18 17 15 14 14 13 12 12 11 10 8 10 12 10 8 11 12 12 17 22 23 19 15 17 18 18 16 15 15 14 14 13 13 13 12 12 12 12
14 15 17 18 17 17 18 18 15 13 13 14 13 12 13 12 10 10 11 13 13 12 10 13 20 23 23 18 16 16 17 17 17 16 15 14 14 14 13 12 12 12 13 14
15 15 16 17 16 14 14 16 15 14 14 14 15 14 12 10 10 10 10 11 13 13 10 13 18 21 21 18 18 19 18 17 17 17 16 14 14 14 13 13 13 13 12 12
16 15 14 15 14 14 13 13 13 13 13 15 15 12 11 9 9 9 9 10 12 11 9 8 10 14 16 17 18 19 18 18 18 17 16 16 16 15 13 14 15 13 12 12
16 15 13 14 13 12 12 12 13 14 13 14 16 14 11 11 9 9 10 9 9 8 7 7 8 10 13 16 17 17 17 15 15 16 15 14 13 13 14 15 13 12 12 11
Wind_Direction
243 249 230 238 230 194 202 210 218 241 243 259 260 252 256 256 267 281 279 257 218 182 141 96 68 356 269 269 295 321 99 132 176 168 151 136 116 105 99 93 91 82 68 51
269 260 247 258 255 227 222 230 234 254 263 256 252 241 250 255 257 262 260 234 203 183 166 161 182 221 243 274 336 31 71 104 157 157 147 131 112 106 97 90 86 78 67 60
264 283 310 271 247 231 217 217 209 235 251 260 243 238 240 248 249 246 241 225 210 203 200 196 193 198 203 251 24 69 73 70 70 95 107 109 114 114 107 99 94 82 69 70
233 148 228 242 240 209 221 244 225 234 253 235 229 248 244 229 233 242 232 221 212 201 198 204 202 203 198 201 135 107 100 91 83 91 95 100 106 112 109 103 96 82 63 65
167 222 261 279 256 206 207 254 242 234 252 246 232 330 287 240 219 227 219 201 194 187 186 196 215 217 195 192 164 143 141 132 119 115 112 112 117 123 119 119 101 82 70 70
174 223 256 249 254 184 138 273 262 223 242 233 140 263 272 264 216 221 201 181 174 175 179 195 225 215 197 199 172 160 157 145 132 129 127 128 128 120 116 122 111 96 80 69
223 236 266 269 290 118 179 246 264 221 232 210 196 224 232 222 188 200 186 177 167 166 181 204 211 184 189 189 181 159 141 132 132 135 133 129 116 104 121 121 111 100 91 77
228 242 265 278 121 197 237 264 286 262 242 226 226 239 246 250 225 194 184 177 168 171 189 205 190 177 180 187 174 143 138 138 136 129 129 132 126 120 126 128 122 117 109 96
209 230 248 261 258 251 257 270 276 274 261 238 235 240 241 239 222 202 191 184 177 176 179 191 190 182 181 181 153 140 139 140 129 112 109 126 138 141 140 141 140 140 132 124
264 268 268 275 275 268 264 259 267 270 264 242 235 240 235 226 210 199 194 187 179 173 179 195 198 195 189 168 153 147 150 144 130 124 120 119 130 152 159 164 158 154 153 150
262 276 288 281 272 266 271 273 273 273 261 240 234 240 230 216 205 200 196 188 179 185 195 202 195 192 186 173 164 162 161 155 144 139 138 127 118 138 169 173 171 167 169 164
277 279 278 280 279 279 279 281 278 272 272 256 230 234 224 214 205 197 195 187 186 194 203 206 198 195 186 179 173 169 169 167 160 151 146 140 129 102 66 122 150 156 160 155
277 291 288 283 286 288 285 281 277 270 261 261 247 230 218 211 201 194 192 191 197 202 204 203 197 196 188 181 178 176 175 173 167 161 158 158 154 144 131 94 110 139 155 158
308 316 310 316 317 316 311 297 286 280 269 257 249 230 213 206 194 193 198 201 203 201 199 196 195 198 189 181 180 180 174 174 171 170 169 168 168 164 156 153 152 152 172 184
331 332 314 320 334 343 343 337 324 309 294 276 255 230 211 202 199 204 204 197 188 191 196 193 195 200 184 181 182 181 177 177 177 176 176 173 169 166 166 167 169 171 179 210
329 334 336 339 344 351 359 2 355 341 327 307 280 244 224 214 209 206 196 183 182 197 200 193 196 197 182 181 183 183 186 189 182 182 181 178 176 176 180 184 188 193 205 208
346 344 338 333 332 335 344 354 359 356 348 339 321 283 244 226 216 205 198 194 196 201 198 193 195 190 181 182 183 186 188 192 190 188 192 191 189 193 194 195 199 209 223 219
335 336 334 325 318 320 326 335 346 353 350 342 342 332 276 231 220 213 206 196 196 199 197 193 189 185 184 184 186 188 189 191 192 195 197 197 198 200 201 204 209 216 228 228
327 329 330 330 325 317 317 321 326 332 335 333 335 344 340 301 255 235 211 192 196 207 208 193 183 185 189 189 187 190 191 194 196 200 202 199 198 196 198 203 210 216 219 213
315 316 318 320 320 315 309 306 306 309 313 312 318 334 342 339 326 295 232 214 216 218 205 187 187 191 193 192 190 195 197 199 202 204 205 205 205 206 205 208 212 215 214 212
307 311 315 318 317 313 309 305 300 294 287 282 287 299 311 316 317 310 272 245 238 226 201 182 190 196 196 194 193 201 202 203 204 204 205 207 209 210 212 213 213 213 214 216
300 308 314 315 312 309 308 304 298 292 283 274 269 269 274 284 296 299 279 259 256 224 208 201 201 200 195 191 197 203 207 208 208 206 205 205 207 209 212 214 215 216 218 220
309 312 312 309 305 301 301 300 296 296 293 286 280 274 269 263 263 274 284 275 259 232 217 212 205 197 190 191 197 202 206 209 210 210 208 207 208 211 212 214 215 216 219 222
309 310 310 307 304 301 299 298 296 295 297 297 290 282 278 274 266 255 257 263 257 244 230 222 210 196 188 196 199 205 209 210 210 211 211 209 208 209 211 212 214 216 218 220
300 302 304 306 308 305 301 299 298 294 297 300 296 290 284 273 263 263 261 259 255 250 240 229 217 204 201 204 203 206 210 211 209 209 208 208 208 209 210 210 212 213 214 217
291 291 293 294 295 295 296 294 291 291 293 294 294 290 285 280 268 264 267 264 258 248 239 233 220 212 214 212 208 207 208 209 208 207 205 204 207 208 210 211 211 213 214 216
294 293 294 296 294 290 287 285 287 288 287 285 287 286 283 282 278 273 271 267 260 250 241 235 228 218 215 213 212 210 207 206 206 206 203 200 200 205 210 210 212 213 214 216
Height
1511 1507 1507 1506 1505 1510 1514 1512 1514 1505 1501 1488 1481 1480 1478 1477 1477 1476 1475 1473 1471 1471 1471 1471 1472 1473 1474 1474 1474 1474 1474 1474 1476 1478 1479 1481 1483 1484 1484 1484 1485 1486 1486 1488
1508 1502 1503 1503 1498 1498 1502 1501 1502 1498 1490 1475 1473 1474 1473 1472 1472 1472 1471 1470 1469 1469 1469 1470 1471 1472 1473 1474 1474 1473 1473 1474 1475 1477 1478 1480 1482 1484 1485 1485 1486 1487 1488 1490
1515 1505 1502 1505 1491 1489 1491 1489 1490 1490 1478 1469 1471 1469 1468 1467 1467 1467 1467 1466 1466 1467 1468 1469 1470 1471 1471 1472 1473 1473 1473 1474 1474 1475 1477 1479 1481 1484 1486 1487 1488 1489 1491 1493
1514 1508 1512 1495 1479 1480 1481 1479 1476 1474 1468 1466 1464 1464 1464 1463 1463 1463 1463 1463 1463 1464 1466 1467 1468 1469 1470 1471 1471 1472 1473 1473 1474 1475 1477 1478 1481 1484 1486 1488 1489 1491 1494 1496
1516 1512 1501 1486 1473 1471 1476 1475 1465 1465 1462 1460 1462 1462 1459 1457 1458 1458 1459 1460 1461 1462 1463 1465 1466 1467 1467 1468 1469 1470 1472 1474 1475 1476 1477 1479 1481 1484 1486 1488 1490 1493 1495 1496
1513 1510 1505 1482 1465 1462 1469 1474 1458 1458 1457 1457 1460 1466 1458 1453 1453 1454 1455 1456 1457 1459 1460 1461 1462 1463 1464 1464 1466 1468 1471 1473 1475 1476 1477 1479 1481 1483 1485 1488 1491 1493 1496 1497
1508 1508 1493 1472 1466 1467 1477 1470 1453 1453 1451 1452 1453 1452 1451 1450 1450 1451 1451 1453 1454 1456 1457 1458 1459 1460 1461 1462 1464 1467 1470 1472 1474 1476 1477 1479 1480 1482 1485 1488 1491 1493 1495 1497
1505 1506 1496 1469 1468 1471 1466 1455 1452 1450 1449 1446 1444 1444 1446 1446 1447 1447 1448 1450 1451 1453 1454 1456 1457 1458 1459 1461 1463 1466 1468 1470 1473 1475 1476 1478 1480 1482 1485 1488 1491 1493 1496 1498
1494 1489 1472 1466 1464 1461 1458 1454 1450 1447 1443 1441 1439 1439 1440 1441 1442 1443 1444 1447 1449 1450 1452 1454 1455 1456 1458 1460 1462 1464 1467 1469 1471 1473 1476 1478 1480 1482 1485 1488 1490 1493 1495 1497
1483 1473 1465 1461 1457 1454 1452 1448 1445 1442 1438 1435 1434 1433 1433 1435 1437 1438 1440 1443 1445 1447 1448 1451 1453 1454 1456 1459 1461 1463 1466 1468 1470 1472 1474 1477 1479 1482 1484 1487 1489 1491 1493 1495
1477 1466 1460 1454 1450 1447 1444 1441 1438 1435 1432 1429 1427 1427 1427 1429 1431 1433 1435 1438 1441 1443 1445 1447 1449 1452 1454 1456 1458 1461 1463 1466 1468 1470 1473 1475 1477 1479 1482 1484 1486 1489 1491 1493
1470 1460 1456 1449 1442 1439 1436 1433 1430 1427 1425 1423 1421 1419 1420 1422 1425 1427 1430 1433 1435 1438 1441 1443 1446 1448 1450 1452 1454 1456 1459 1461 1464 1467 1469 1472 1474 1477 1480 1482 1485 1487 1489 1491
1464 1456 1450 1442 1436 1432 1429 1425 1422 1420 1418 1416 1414 1413 1412 1414 1417 1421 1424 1427 1429 1432 1435 1438 1441 1443 1446 1448 1450 1452 1454 1456 1459 1462 1466 1469 1471 1474 1477 1480 1483 1485 1487 1489
1461 1455 1446 1440 1435 1429 1424 1419 1415 1411 1409 1407 1406 1405 1404 1405 1409 1413 1416 1420 1423 1426 1430 1433 1436 1438 1441 1443 1446 1448 1450 1452 1455 1458 1462 1465 1468 1472 1474 1477 1480 1482 1485 1487
1458 1454 1449 1442 1434 1427 1420 1414 1409 1404 1401 1399 1398 1397 1396 1396 1400 1404 1408 1412 1417 1420 1423 1427 1430 1433 1436 1439 1442 1444 1447 1449 1452 1455 1459 1462 1465 1468 1471 1474 1477 1480 1482 1485
1458 1451 1446 1440 1433 1426 1419 1413 1408 1403 1399 1396 1393 1391 1391 1390 1393 1396 1400 1404 1409 1412 1416 1419 1423 1428 1431 1434 1437 1440 1443 1446 1449 1453 1456 1459 1462 1465 1468 1471 1474 1477 1479 1482
1458 1450 1445 1439 1433 1427 1422 1416 1410 1405 1400 1395 1390 1387 1386 1386 1387 1390 1393 1396 1400 1404 1409 1412 1416 1422 1426 1429 1432 1435 1439 1443 1446 1450 1453 1457 1460 1463 1466 1469 1471 1474 1476 1478
1459 1452 1447 1441 1435 1428 1422 1416 1410 1404 1400 1396 1389 1383 1380 1379 1380 1382 1386 1389 1392 1396 1400 1405 1410 1416 1420 1424 1427 1431 1435 1438 1442 1445 1449 1453 1456 1459 1462 1465 1468 1470 1472 1474
1456 1450 1443 1437 1432 1426 1420 1414 1408 1403 1398 1393 1389 1383 1378 1376 1377 1378 1380 1382 1384 1387 1391 1397 1403 1408 1413 1418 1422 1426 1429 1433 1437 1441 1444 1448 1451 1454 1457 1460 1463 1465 1468 1470
1452 1445 1438 1432 1426 1421 1415 1410 1405 1400 1394 1389 1385 1381 1376 1374 1374 1374 1375 1376 1377 1379 1383 1388 1394 1399 1405 1410 1416 1420 1423 1427 1430 1434 1438 1442 1445 1449 1452 1455 1458 1460 1462 1465
1444 1439 1432 1424 1417 1412 1408 1404 1400 1394 1389 1385 1381 1377 1374 1371 1369 1369 1369 1370 1371 1374 1377 1381 1385 1390 1396 1401 1407 1412 1416 1420 1424 1427 1431 1435 1438 1442 1446 1449 1452 1454 1457 1459
1435 1429 1422 1416 1410 1404 1400 1396 1392 1387 1383 1379 1375 1372 1369 1367 1365 1363 1363 1364 1364 1366 1369 1372 1376 1381 1386 1392 1398 1403 1408 1412 1416 1420 1424 1428 1431 1435 1439 1442 1445 1448 1450 1452
1426 1419 1413 1407 1401 1396 1390 1386 1382 1379 1375 1371 1368 1365 1363 1361 1359 1359 1357 1357 1359 1360 1362 1364 1367 1372 1377 1383 1388 1394 1399 1403 1408 1412 1416 1420 1424 1427 1431 1434 1437 1440 1443 1445
1419 1412 1406 1399 1392 1386 1381 1376 1373 1370 1367 1363 1359 1357 1355 1352 1351 1351 1351 1351 1352 1353 1354 1355 1358 1362 1367 1372 1378 1385 1389 1394 1399 1403 1407 1411 1415 1419 1423 1426 1429 1432 1435 1437
1412 1406 1398 1392 1385 1379 1374 1368 1364 1360 1357 1353 1349 1347 1345 1344 1343 1343 1344 1344 1344 1344 1345 1346 1349 1352 1357 1361 1367 1373 1378 1383 1388 1393 1397 1402 1406 1410 1414 1418 1421 1424 1426 1429
1404 1397 1391 1385 1379 1373 1367 1361 1356 1352 1348 1343 1338 1336 1335 1334 1334 1335 1334 1334 1335 1335 1336 1338 1340 1342 1346 1350 1355 1361 1366 1372 1378 1382 1387 1392 1396 1401 1405 1409 1412 1415 1418 1421
1395 1388 1382 1375 1369 1364 1358 1352 1347 1341 1337 1333 1329 1326 1325 1325 1325 1326 1326 1326 1326 1327 1329 1330 1331 1333 1336 1339 1344 1349 1354 1360 1366 1372 1377 1382 1387 1392 1396 1400 1403 1406 1409 1412